| time (UTC) | temp C | wind direction | speed KPH | gust KPH | rain 1hr cm | rain 24hr cm | rain mn cm | humidity % | barometer mb |
| 20260505230503 | 3 | 2 | 6.4 | 14.5 | 0.00 | 0.71 | 0.23 | 77 | 1010.1 |
| 20260505230016 | 4 | 356 | 8.0 | 16.1 | 0.00 | 0.71 | 0.23 | 77 | 1010.3 |
| 20260505225507 | 4 | 70 | 4.8 | 16.1 | 0.00 | 0.71 | 0.23 | 72 | 1009.9 |
| 20260505225004 | 5 | 260 | 9.7 | 14.5 | 0.00 | 0.71 | 0.23 | 70 | 1009.9 |
| 20260505224515 | 5 | 274 | 4.8 | 19.3 | 0.00 | 0.71 | 0.23 | 70 | 1009.7 |
| 20260505224007 | 5 | 262 | 8.0 | 24.1 | 0.00 | 0.71 | 0.23 | 69 | 1009.7 |
| 20260505223507 | 5 | 271 | 16.1 | 24.1 | 0.00 | 0.71 | 0.23 | 68 | 1009.5 |
| 20260505223021 | 5 | 304 | 14.5 | 25.7 | 0.00 | 0.71 | 0.23 | 69 | 1009.5 |
| 20260505222506 | 4 | 290 | 14.5 | 25.7 | 0.03 | 0.71 | 0.23 | 71 | 1009.8 |
| 20260505222006 | 4 | 63 | 8.0 | 12.9 | 0.03 | 0.71 | 0.23 | 80 | 1009.7 |
| 20260505221524 | 4 | 241 | 4.8 | 17.7 | 0.05 | 0.71 | 0.23 | 78 | 1009.7 |
| 20260505221007 | 4 | 302 | 8.0 | 17.7 | 0.05 | 0.71 | 0.23 | 78 | 1009.7 |
| 20260505220507 | 3 | 304 | 8.0 | 24.1 | 0.05 | 0.71 | 0.23 | 79 | 1009.7 |
| 20260505220035 | 3 | 278 | 12.9 | 30.6 | 0.08 | 0.71 | 0.23 | 77 | 1009.5 |
| 20260505215510 | 3 | 302 | 16.1 | 35.4 | 0.08 | 0.71 | 0.23 | 79 | 1009.3 |
| 20260505215008 | 3 | 290 | 24.1 | 41.8 | 0.08 | 0.71 | 0.23 | 76 | 1009.2 |
| 20260505214513 | 4 | 328 | 25.7 | 41.8 | 0.08 | 0.71 | 0.23 | 78 | 1009.4 |
| 20260505214004 | 4 | 297 | 29.0 | 41.8 | 0.08 | 0.71 | 0.23 | 77 | 1009.5 |
| 20260505213504 | 3 | 287 | 3.2 | 8.0 | 0.08 | 0.71 | 0.23 | 84 | 1009.4 |
| 20260505213017 | 3 | 76 | 1.6 | 11.3 | 0.08 | 0.71 | 0.23 | 84 | 1009.1 |
| 20260505212506 | 3 | 51 | 6.4 | 20.9 | 0.05 | 0.69 | 0.20 | 80 | 1008.9 |
| 20260505212007 | 4 | 311 | 14.5 | 20.9 | 0.05 | 0.69 | 0.20 | 78 | 1009.0 |
| 20260505211522 | 5 | 8 | 8.0 | 11.3 | 0.03 | 0.66 | 0.18 | 76 | 1008.6 |
| 20260505211007 | 5 | 56 | 3.2 | 9.7 | 0.03 | 0.66 | 0.18 | 75 | 1008.4 |
| 20260505210508 | 5 | 56 | 1.6 | 12.9 | 0.03 | 0.66 | 0.18 | 74 | 1008.4 |
| 20260505210027 | 5 | 55 | 3.2 | 12.9 | 0.00 | 0.64 | 0.15 | 71 | 1008.4 |
| 20260505205512 | 6 | 60 | 9.7 | 17.7 | 0.00 | 0.64 | 0.15 | 69 | 1008.4 |
| 20260505205011 | 6 | 68 | 8.0 | 17.7 | 0.00 | 0.64 | 0.15 | 70 | 1008.5 |
| 20260505204532 | 6 | 94 | 8.0 | 17.7 | 0.00 | 0.64 | 0.15 | 70 | 1008.5 |
| 20260505204008 | 6 | 58 | 1.6 | 20.9 | 0.00 | 0.64 | 0.15 | 70 | 1008.5 |
| 20260505203511 | 5 | 61 | 9.7 | 20.9 | 0.00 | 0.64 | 0.15 | 73 | 1008.6 |
| 20260505203015 | 5 | 41 | 8.0 | 12.9 | 0.00 | 0.64 | 0.15 | 74 | 1008.8 |
| 20260505202506 | 5 | 9 | 4.8 | 11.3 | 0.00 | 0.64 | 0.15 | 75 | 1009.0 |
| 20260505202008 | 5 | 101 | 6.4 | 14.5 | 0.00 | 0.64 | 0.15 | 77 | 1009.1 |
| 20260505201518 | 5 | 70 | 6.4 | 14.5 | 0.00 | 0.64 | 0.15 | 77 | 1009.3 |
| 20260505201002 | 5 | 68 | 3.2 | 16.1 | 0.00 | 0.64 | 0.15 | 76 | 1009.3 |
| 20260505200502 | 5 | 340 | 8.0 | 17.7 | 0.00 | 0.64 | 0.15 | 78 | 1009.3 |
| 20260505200004 | 5 | 89 | 12.9 | 17.7 | 0.00 | 0.64 | 0.15 | 81 | 1009.3 |
| 20260505195507 | 5 | 90 | 8.0 | 12.9 | 0.00 | 0.64 | 0.15 | 79 | 1009.4 |
| 20260505195003 | 4 | 99 | 8.0 | 16.1 | 0.00 | 0.64 | 0.15 | 82 | 1009.4 |
| 20260505194506 | 3 | 86 | 9.7 | 16.1 | 0.00 | 0.64 | 0.15 | 86 | 1009.4 |
| 20260505194006 | 3 | 71 | 0.0 | 9.7 | 0.00 | 0.64 | 0.15 | 84 | 1009.6 |
| 20260505193503 | 3 | 63 | 1.6 | 9.7 | 0.00 | 0.64 | 0.15 | 84 | 1009.7 |
| 20260505193011 | 3 | 61 | 4.8 | 11.3 | 0.00 | 0.64 | 0.15 | 88 | 1009.8 |
| 20260505192504 | 3 | 44 | 4.8 | 22.5 | 0.00 | 0.64 | 0.15 | 85 | 1009.8 |
| 20260505192006 | 3 | 358 | 8.0 | 24.1 | 0.00 | 0.64 | 0.15 | 86 | 1009.9 |
| 20260505191516 | 3 | 301 | 17.7 | 27.4 | 0.00 | 0.64 | 0.15 | 85 | 1010.3 |
| 20260505191009 | 3 | 312 | 12.9 | 29.0 | 0.00 | 0.64 | 0.15 | 85 | 1010.4 |
| 20260505190505 | 3 | 300 | 14.5 | 29.0 | 0.00 | 0.64 | 0.15 | 83 | 1010.6 |
| 20260505190024 | 4 | 343 | 14.5 | 29.0 | 0.00 | 0.64 | 0.15 | 80 | 1010.2 |
| 20260505185506 | 4 | 333 | 17.7 | 29.0 | 0.00 | 0.64 | 0.15 | 79 | 1009.9 |
| 20260505185005 | 5 | 13 | 16.1 | 25.7 | 0.00 | 0.64 | 0.15 | 80 | 1009.7 |
| 20260505184504 | 5 | 345 | 16.1 | 25.7 | 0.00 | 0.64 | 0.15 | 80 | 1009.6 |
| 20260505184005 | 5 | 352 | 12.9 | 32.2 | 0.00 | 0.64 | 0.15 | 80 | 1009.6 |
| 20260505183504 | 5 | 345 | 12.9 | 32.2 | 0.00 | 0.64 | 0.15 | 79 | 1009.5 |
| 20260505183007 | 6 | 11 | 16.1 | 27.4 | 0.00 | 0.64 | 0.15 | 78 | 1009.6 |
| 20260505182503 | 6 | 333 | 12.9 | 20.9 | 0.00 | 0.64 | 0.15 | 76 | 1009.6 |
| 20260505182003 | 7 | 326 | 11.3 | 19.3 | 0.00 | 0.64 | 0.15 | 72 | 1009.3 |
| 20260505181512 | 7 | 347 | 8.0 | 11.3 | 0.00 | 0.64 | 0.15 | 70 | 1009.2 |
| 20260505181004 | 7 | 338 | 3.2 | 9.7 | 0.00 | 0.64 | 0.15 | 71 | 1009.3 |
| 20260505180503 | 7 | 274 | 0.0 | 12.9 | 0.00 | 0.64 | 0.15 | 72 | 1009.4 |
| 20260505180016 | 7 | 37 | 3.2 | 14.5 | 0.00 | 0.64 | 0.15 | 74 | 1009.4 |
| 20260505175506 | 7 | 326 | 9.7 | 14.5 | 0.00 | 0.64 | 0.15 | 74 | 1009.4 |
| 20260505175006 | 7 | 81 | 4.8 | 14.5 | 0.00 | 0.64 | 0.15 | 81 | 1009.5 |
| 20260505174520 | 6 | 41 | 4.8 | 14.5 | 0.00 | 0.64 | 0.15 | 75 | 1009.6 |
| 20260505174006 | 6 | 94 | 4.8 | 16.1 | 0.00 | 0.64 | 0.15 | 79 | 1009.7 |
| 20260505173505 | 6 | 31 | 9.7 | 19.3 | 0.00 | 0.64 | 0.15 | 81 | 1009.8 |
| 20260505173004 | 5 | 77 | 9.7 | 19.3 | 0.00 | 0.64 | 0.15 | 80 | 1010.1 |
| 20260505172503 | 5 | 58 | 11.3 | 20.9 | 0.00 | 0.64 | 0.15 | 80 | 1010.2 |
| 20260505172005 | 5 | 60 | 8.0 | 22.5 | 0.00 | 0.64 | 0.15 | 80 | 1010.3 |
| 20260505171515 | 6 | 341 | 12.9 | 22.5 | 0.00 | 0.64 | 0.15 | 79 | 1010.4 |
| 20260505171004 | 6 | 301 | 9.7 | 14.5 | 0.00 | 0.64 | 0.15 | 79 | 1010.5 |
| 20260505170505 | 6 | 316 | 6.4 | 14.5 | 0.03 | 0.64 | 0.15 | 80 | 1010.5 |
| 20260505170017 | 5 | 342 | 6.4 | 12.9 | 0.03 | 0.64 | 0.15 | 78 | 1010.6 |
| 20260505165505 | 5 | 61 | 1.6 | 8.0 | 0.05 | 0.64 | 0.15 | 81 | 1010.6 |
| 20260505165009 | 5 | 48 | 0.0 | 8.0 | 0.05 | 0.64 | 0.15 | 78 | 1010.7 |
| 20260505164516 | 5 | 353 | 1.6 | 8.0 | 0.05 | 0.64 | 0.15 | 82 | 1010.7 |
| 20260505164005 | 5 | 307 | 3.2 | 9.7 | 0.05 | 0.64 | 0.15 | 77 | 1010.8 |
| 20260505163505 | 5 | 97 | 0.0 | 11.3 | 0.05 | 0.64 | 0.15 | 85 | 1010.5 |
| 20260505163021 | 5 | 94 | 3.2 | 11.3 | 0.05 | 0.64 | 0.15 | 85 | 1010.3 |
| 20260505162506 | 4 | 347 | 4.8 | 11.3 | 0.05 | 0.64 | 0.15 | 83 | 1010.8 |
| 20260505162010 | 4 | 71 | 6.4 | 8.0 | 0.05 | 0.64 | 0.15 | 88 | 1010.6 |
| 20260505161505 | 4 | 114 | 1.6 | 9.7 | 0.05 | 0.64 | 0.15 | 88 | 1010.9 |
| 20260505161003 | 4 | 147 | 0.0 | 17.7 | 0.05 | 0.64 | 0.15 | 89 | 1011.0 |
| 20260505160507 | 4 | 282 | 6.4 | 19.3 | 0.03 | 0.61 | 0.13 | 86 | 1011.0 |
| 20260505153020 | 5 | 346 | 0.0 | 0.0 | 0.00 | 0.58 | 0.10 | 87 | 1010.8 |
| 20260505152507 | 5 | 319 | 0.0 | 1.6 | 0.00 | 0.58 | 0.10 | 87 | 1010.8 |
| 20260505152008 | 5 | 304 | 0.0 | 1.6 | 0.00 | 0.58 | 0.10 | 87 | 1010.8 |
| 20260505151524 | 5 | 314 | 0.0 | 0.0 | 0.00 | 0.58 | 0.10 | 88 | 1010.9 |
| 20260505151006 | 4 | 223 | 0.0 | 0.0 | 0.00 | 0.58 | 0.10 | 89 | 1010.9 |
| 20260505150507 | 4 | 299 | 0.0 | 1.6 | 0.00 | 0.58 | 0.10 | 88 | 1011.0 |
| 20260505140507 | 3 | 311 | 1.6 | 4.8 | 0.00 | 0.58 | 0.10 | 91 | 1011.9 |
| 20260505125008 | 2 | 281 | 0.0 | 0.0 | 0.00 | 0.58 | 0.10 | 92 | 1011.7 |
| 20260505124525 | 2 | 46 | 0.0 | 0.0 | 0.00 | 0.58 | 0.10 | 92 | 1011.7 |
| 20260505124009 | 2 | 46 | 0.0 | 0.0 | 0.00 | 0.58 | 0.10 | 92 | 1011.6 |
| 20260505123509 | 2 | 46 | 0.0 | 0.0 | 0.00 | 0.58 | 0.10 | 92 | 1011.7 |
| 20260505123029 | 2 | 46 | 0.0 | 0.0 | 0.00 | 0.58 | 0.10 | 92 | 1011.7 |
| 20260505122506 | 2 | 44 | 0.0 | 0.0 | 0.00 | 0.58 | 0.10 | 93 | 1011.7 |
| 20260505122016 | 2 | 67 | 0.0 | 0.0 | 0.00 | 0.58 | 0.10 | 93 | 1011.7 |
| 20260505121514 | 2 | 62 | 0.0 | 0.0 | 0.00 | 0.58 | 0.10 | 93 | 1011.6 |
| 20260505121008 | 2 | 79 | 0.0 | 1.6 | 0.00 | 0.58 | 0.10 | 93 | 1011.7 |
| 20260505120508 | 2 | 84 | 0.0 | 4.8 | 0.00 | 0.58 | 0.10 | 93 | 1011.8 |
| 20260505120022 | 2 | 76 | 1.6 | 4.8 | 0.00 | 0.58 | 0.10 | 93 | 1011.7 |
| 20260505115507 | 2 | 39 | 0.0 | 0.0 | 0.00 | 0.58 | 0.10 | 92 | 1011.8 |
| 20260505115010 | 2 | 82 | 0.0 | 0.0 | 0.00 | 0.58 | 0.10 | 92 | 1011.7 |
| 20260505114523 | 2 | 262 | 0.0 | 0.0 | 0.00 | 0.58 | 0.10 | 92 | 1011.8 |
| 20260505114008 | 2 | 262 | 0.0 | 0.0 | 0.00 | 0.58 | 0.10 | 92 | 1011.8 |
| 20260505113507 | 2 | 262 | 0.0 | 0.0 | 0.00 | 0.58 | 0.10 | 92 | 1011.8 |
| 20260505113026 | 2 | 262 | 0.0 | 0.0 | 0.00 | 0.58 | 0.10 | 92 | 1011.9 |
| 20260505112514 | 2 | 262 | 0.0 | 0.0 | 0.00 | 0.58 | 0.10 | 92 | 1011.8 |
| 20260505112011 | 2 | 262 | 0.0 | 0.0 | 0.00 | 0.58 | 0.10 | 92 | 1011.9 |
| 20260505111535 | 2 | 262 | 0.0 | 0.0 | 0.00 | 0.58 | 0.10 | 92 | 1011.9 |
| 20260505111004 | 2 | 262 | 0.0 | 0.0 | 0.00 | 0.58 | 0.10 | 92 | 1011.9 |
| 20260505110503 | 2 | 276 | 0.0 | 1.6 | 0.00 | 0.58 | 0.10 | 92 | 1011.8 |
| 20260505102003 | 2 | 139 | 0.0 | 0.0 | 0.00 | 0.58 | 0.10 | 93 | 1012.0 |
| 20260505101509 | 2 | 124 | 0.0 | 0.0 | 0.00 | 0.58 | 0.10 | 93 | 1012.0 |
| 20260505101003 | 2 | 186 | 0.0 | 0.0 | 0.00 | 0.58 | 0.10 | 92 | 1012.2 |
| 20260505100506 | 2 | 186 | 0.0 | 0.0 | 0.00 | 0.58 | 0.10 | 92 | 1012.4 |
| 20260505100017 | 2 | 187 | 0.0 | 0.0 | 0.00 | 0.58 | 0.10 | 92 | 1012.5 |
| 20260505095503 | 2 | 186 | 0.0 | 3.2 | 0.00 | 0.58 | 0.10 | 92 | 1012.5 |
| 20260505095004 | 2 | 221 | 0.0 | 4.8 | 0.00 | 0.58 | 0.10 | 92 | 1012.4 |
| 20260505094519 | 2 | 162 | 0.0 | 4.8 | 0.00 | 0.58 | 0.10 | 92 | 1012.4 |
| 20260505094008 | 2 | 141 | 0.0 | 3.2 | 0.00 | 0.58 | 0.10 | 93 | 1012.5 |
| 20260505093503 | 2 | 216 | 0.0 | 0.0 | 0.00 | 0.58 | 0.10 | 93 | 1012.5 |
| 20260505093022 | 2 | 226 | 0.0 | 0.0 | 0.00 | 0.58 | 0.10 | 92 | 1012.5 |
| 20260505092507 | 2 | 148 | 0.0 | 0.0 | 0.00 | 0.58 | 0.10 | 92 | 1012.5 |
| 20260505092003 | 2 | 103 | 0.0 | 0.0 | 0.03 | 0.58 | 0.10 | 93 | 1012.6 |
| 20260505091504 | 2 | 336 | 0.0 | 0.0 | 0.03 | 0.58 | 0.10 | 93 | 1012.7 |
| 20260505091002 | 2 | 336 | 0.0 | 0.0 | 0.05 | 0.58 | 0.10 | 93 | 1012.7 |
| 20260505090503 | 2 | 99 | 0.0 | 4.8 | 0.05 | 0.58 | 0.10 | 93 | 1012.8 |
| 20260505090008 | 2 | 99 | 0.0 | 4.8 | 0.08 | 0.58 | 0.10 | 93 | 1013.0 |
| 20260505085503 | 2 | 104 | 1.6 | 6.4 | 0.10 | 0.58 | 0.10 | 93 | 1013.0 |
| 20260505085004 | 2 | 93 | 4.8 | 6.4 | 0.10 | 0.58 | 0.10 | 93 | 1013.0 |
| 20260505084519 | 2 | 87 | 0.0 | 0.0 | 0.10 | 0.58 | 0.10 | 93 | 1013.2 |
| 20260505084003 | 2 | 121 | 0.0 | 0.0 | 0.10 | 0.58 | 0.10 | 93 | 1013.3 |
| 20260505083503 | 2 | 121 | 0.0 | 0.0 | 0.10 | 0.58 | 0.10 | 93 | 1013.3 |
| 20260505083019 | 2 | 127 | 0.0 | 0.0 | 0.10 | 0.58 | 0.10 | 93 | 1013.4 |
| 20260505082507 | 2 | 108 | 0.0 | 0.0 | 0.10 | 0.58 | 0.10 | 93 | 1013.3 |
| 20260505082009 | 2 | 219 | 0.0 | 0.0 | 0.08 | 0.56 | 0.08 | 93 | 1013.6 |
| 20260505081539 | 2 | 219 | 0.0 | 0.0 | 0.08 | 0.56 | 0.08 | 93 | 1013.7 |
| 20260505081008 | 2 | 205 | 0.0 | 0.0 | 0.05 | 0.53 | 0.05 | 93 | 1013.6 |
| 20260505080507 | 2 | 205 | 0.0 | 0.0 | 0.05 | 0.53 | 0.05 | 93 | 1013.7 |
| 20260505080006 | 2 | 193 | 0.0 | 0.0 | 0.03 | 0.51 | 0.03 | 93 | 1013.6 |
| 20260505075504 | 2 | 217 | 0.0 | 0.0 | 0.00 | 0.48 | 0.00 | 93 | 1013.6 |
| 20260505075007 | 2 | 167 | 0.0 | 0.0 | 0.00 | 0.48 | 0.00 | 93 | 1013.5 |
| 20260505074512 | 2 | 154 | 0.0 | 0.0 | 0.00 | 0.48 | 0.00 | 93 | 1013.4 |
| 20260505074004 | 2 | 158 | 0.0 | 0.0 | 0.00 | 0.48 | 0.00 | 93 | 1013.5 |
| 20260505073504 | 2 | 218 | 0.0 | 0.0 | 0.00 | 0.48 | 0.00 | 93 | 1013.7 |
| 20260505073018 | 2 | 214 | 0.0 | 0.0 | 0.00 | 0.48 | 0.00 | 92 | 1013.7 |
| 20260505072505 | 2 | 214 | 0.0 | 0.0 | 0.00 | 0.48 | 0.00 | 92 | 1013.8 |
| 20260505072003 | 2 | 214 | 0.0 | 0.0 | 0.00 | 0.48 | 0.00 | 92 | 1013.8 |
| 20260505071542 | 2 | 213 | 0.0 | 0.0 | 0.00 | 0.48 | 0.00 | 92 | 1013.8 |
| 20260505071006 | 2 | 212 | 0.0 | 0.0 | 0.00 | 0.48 | 0.00 | 92 | 1013.8 |
| 20260505070505 | 2 | 246 | 0.0 | 0.0 | 0.00 | 0.48 | 0.00 | 92 | 1013.9 |
| 20260505070025 | 2 | 243 | 0.0 | 0.0 | 0.00 | 0.48 | 0.00 | 92 | 1014.0 |
| 20260505065507 | 2 | 151 | 0.0 | 0.0 | 0.00 | 0.48 | 0.00 | 92 | 1013.9 |
| 20260505065006 | 2 | 174 | 0.0 | 0.0 | 0.00 | 0.48 | 0.00 | 93 | 1014.0 |
| 20260505064527 | 2 | 113 | 0.0 | 0.0 | 0.00 | 0.48 | 0.00 | 92 | 1014.0 |
| 20260505064007 | 2 | 113 | 0.0 | 0.0 | 0.00 | 0.48 | 0.00 | 92 | 1013.9 |
| 20260505063504 | 2 | 258 | 0.0 | 0.0 | 0.00 | 0.48 | 0.00 | 92 | 1014.0 |
| 20260505063014 | 2 | 258 | 0.0 | 0.0 | 0.00 | 0.48 | 0.00 | 92 | 1014.1 |
| 20260505062504 | 2 | 245 | 0.0 | 0.0 | 0.00 | 0.48 | 0.00 | 92 | 1014.1 |
| 20260505062005 | 2 | 111 | 0.0 | 0.0 | 0.00 | 0.48 | 0.00 | 92 | 1014.1 |
| 20260505061518 | 2 | 103 | 0.0 | 0.0 | 0.00 | 0.48 | 0.00 | 91 | 1014.0 |
| 20260505061003 | 2 | 173 | 0.0 | 0.0 | 0.00 | 0.48 | 0.00 | 92 | 1013.9 |
| 20260505060509 | 2 | 174 | 0.0 | 0.0 | 0.00 | 0.48 | 0.00 | 92 | 1013.9 |
| 20260505060020 | 2 | 264 | 0.0 | 0.0 | 0.00 | 0.48 | 0.00 | 91 | 1014.0 |
| 20260505055510 | 2 | 271 | 0.0 | 0.0 | 0.00 | 0.48 | 0.48 | 91 | 1014.0 |
| 20260505055011 | 2 | 271 | 0.0 | 0.0 | 0.00 | 0.48 | 0.48 | 91 | 1014.0 |
| 20260505054532 | 2 | 271 | 0.0 | 0.0 | 0.00 | 0.48 | 0.48 | 91 | 1014.1 |
| 20260505054011 | 2 | 271 | 0.0 | 0.0 | 0.00 | 0.48 | 0.48 | 91 | 1014.2 |
| 20260505053510 | 2 | 271 | 0.0 | 0.0 | 0.00 | 0.48 | 0.48 | 91 | 1014.1 |
| 20260505053037 | 2 | 271 | 0.0 | 0.0 | 0.00 | 0.48 | 0.48 | 91 | 1014.1 |
| 20260505052511 | 2 | 271 | 0.0 | 0.0 | 0.00 | 0.48 | 0.48 | 90 | 1014.2 |
| 20260505052008 | 2 | 271 | 0.0 | 0.0 | 0.00 | 0.48 | 0.48 | 90 | 1014.3 |
| 20260505051523 | 2 | 271 | 0.0 | 0.0 | 0.00 | 0.48 | 0.48 | 90 | 1014.3 |
| 20260505051011 | 2 | 282 | 0.0 | 0.0 | 0.00 | 0.48 | 0.48 | 90 | 1014.3 |
| 20260505050505 | 2 | 288 | 0.0 | 0.0 | 0.00 | 0.48 | 0.48 | 90 | 1014.4 |
| 20260505041527 | 3 | 261 | 0.0 | 4.8 | 0.00 | 0.48 | 0.48 | 88 | 1014.3 |
| 20260505041008 | 3 | 148 | 0.0 | 8.0 | 0.00 | 0.48 | 0.48 | 89 | 1014.4 |
| 20260505040509 | 3 | 135 | 1.6 | 12.9 | 0.00 | 0.48 | 0.48 | 88 | 1014.3 |
| 20260505040036 | 3 | 96 | 6.4 | 12.9 | 0.00 | 0.48 | 0.48 | 88 | 1014.3 |
| 20260505035502 | 3 | 64 | 8.0 | 11.3 | 0.00 | 0.48 | 0.48 | 88 | 1014.3 |
| 20260505035002 | 3 | 96 | 6.4 | 14.5 | 0.00 | 0.48 | 0.48 | 88 | 1014.3 |
| 20260505034509 | 3 | 78 | 6.4 | 19.3 | 0.00 | 0.48 | 0.48 | 88 | 1014.2 |
| 20260505034003 | 3 | 124 | 14.5 | 19.3 | 0.00 | 0.48 | 0.48 | 87 | 1014.1 |
| 20260505033503 | 3 | 120 | 12.9 | 17.7 | 0.00 | 0.48 | 0.48 | 87 | 1014.1 |
| 20260505033011 | 3 | 91 | 11.3 | 20.9 | 0.00 | 0.48 | 0.48 | 88 | 1014.1 |
| 20260505032504 | 3 | 97 | 12.9 | 20.9 | 0.00 | 0.48 | 0.48 | 88 | 1014.1 |
| 20260505032006 | 3 | 72 | 12.9 | 19.3 | 0.00 | 0.48 | 0.48 | 88 | 1014.2 |
| 20260505031508 | 3 | 97 | 9.7 | 14.5 | 0.00 | 0.48 | 0.48 | 89 | 1014.0 |
| 20260505031005 | 3 | 98 | 3.2 | 6.4 | 0.00 | 0.48 | 0.48 | 89 | 1014.0 |
| 20260505030503 | 3 | 117 | 0.0 | 3.2 | 0.00 | 0.48 | 0.48 | 90 | 1013.9 |
| 20260505030023 | 3 | 161 | 1.6 | 3.2 | 0.00 | 0.48 | 0.48 | 90 | 1013.9 |
| 20260505025507 | 3 | 191 | 0.0 | 4.8 | 0.03 | 0.48 | 0.48 | 90 | 1013.8 |
| 20260505025004 | 3 | 217 | 1.6 | 4.8 | 0.03 | 0.48 | 0.48 | 90 | 1013.9 |
| 20260505024508 | 3 | 205 | 0.0 | 9.7 | 0.03 | 0.48 | 0.48 | 90 | 1013.8 |
| 20260505024003 | 3 | 197 | 0.0 | 9.7 | 0.03 | 0.48 | 0.48 | 90 | 1013.7 |
| 20260505023503 | 3 | 211 | 4.8 | 11.3 | 0.03 | 0.48 | 0.48 | 90 | 1013.8 |
| 20260505023015 | 3 | 213 | 3.2 | 11.3 | 0.03 | 0.48 | 0.48 | 90 | 1013.6 |
| 20260505022503 | 3 | 216 | 4.8 | 9.7 | 0.03 | 0.48 | 0.48 | 90 | 1013.7 |
| 20260505022004 | 3 | 229 | 3.2 | 9.7 | 0.03 | 0.48 | 0.48 | 90 | 1013.8 |
| 20260505021512 | 3 | 239 | 4.8 | 8.0 | 0.05 | 0.48 | 0.48 | 90 | 1013.8 |
| 20260505021002 | 3 | 229 | 4.8 | 8.0 | 0.10 | 0.48 | 0.48 | 89 | 1013.7 |
| 20260505020504 | 3 | 188 | 3.2 | 17.7 | 0.15 | 0.48 | 0.48 | 89 | 1013.6 |
| 20260505020012 | 3 | 181 | 3.2 | 19.3 | 0.20 | 0.48 | 0.48 | 88 | 1013.6 |
| 20260505015504 | 3 | 101 | 14.5 | 19.3 | 0.20 | 0.46 | 0.46 | 88 | 1013.5 |
| 20260505015005 | 3 | 101 | 12.9 | 17.7 | 0.25 | 0.46 | 0.46 | 88 | 1013.5 |
| 20260505014514 | 3 | 99 | 6.4 | 9.7 | 0.36 | 0.46 | 0.46 | 87 | 1013.9 |
| 20260505014003 | 3 | 78 | 6.4 | 9.7 | 0.41 | 0.46 | 0.46 | 87 | 1014.0 |
| 20260505013503 | 3 | 51 | 1.6 | 4.8 | 0.43 | 0.46 | 0.46 | 87 | 1014.0 |
| 20260505013013 | 3 | 68 | 3.2 | 6.4 | 0.46 | 0.46 | 0.46 | 87 | 1014.1 |
| 20260505012504 | 3 | 43 | 1.6 | 6.4 | 0.46 | 0.46 | 0.46 | 88 | 1014.2 |
| 20260505012003 | 3 | 337 | 3.2 | 16.1 | 0.46 | 0.46 | 0.46 | 88 | 1014.2 |
| 20260505011515 | 3 | 358 | 3.2 | 19.3 | 0.43 | 0.43 | 0.43 | 88 | 1014.1 |
| 20260505011008 | 3 | 335 | 14.5 | 22.5 | 0.38 | 0.38 | 0.38 | 88 | 1014.0 |
| 20260505010503 | 3 | 335 | 11.3 | 25.7 | 0.33 | 0.33 | 0.33 | 88 | 1013.8 |
| 20260505010012 | 3 | 333 | 16.1 | 25.7 | 0.28 | 0.28 | 0.28 | 87 | 1013.4 |
| 20260505005503 | 3 | 313 | 12.9 | 25.7 | 0.25 | 0.25 | 0.25 | 86 | 1013.3 |
| 20260505005004 | 4 | 333 | 16.1 | 27.4 | 0.20 | 0.20 | 0.20 | 83 | 1013.2 |
| 20260505004514 | 5 | 332 | 17.7 | 27.4 | 0.10 | 0.10 | 0.10 | 79 | 1013.2 |
| 20260505004004 | 7 | 337 | 16.1 | 27.4 | 0.05 | 0.05 | 0.05 | 71 | 1013.0 |
| 20260505003508 | 7 | 342 | 0.0 | 4.8 | 0.03 | 0.03 | 0.03 | 68 | 1012.7 |
| 20260505003011 | 7 | 96 | 1.6 | 11.3 | 0.00 | 0.00 | 0.00 | 65 | 1012.5 |
| 20260505002504 | 8 | 114 | 4.8 | 14.5 | 0.00 | 0.00 | 0.00 | 64 | 1012.5 |
| 20260505002004 | 8 | 89 | 8.0 | 14.5 | 0.00 | 0.00 | 0.00 | 64 | 1012.5 |
| 20260505001512 | 8 | 92 | 8.0 | 16.1 | 0.00 | 0.00 | 0.00 | 64 | 1012.7 |
| 20260505001007 | 8 | 102 | 4.8 | 22.5 | 0.00 | 0.00 | 0.00 | 65 | 1012.7 |
| 20260505000505 | 8 | 139 | 12.9 | 27.4 | 0.00 | 0.00 | 0.00 | 65 | 1012.7 |
| 20260505000018 | 8 | 104 | 17.7 | 27.4 | 0.00 | 0.00 | 0.00 | 63 | 1012.8 |
| 20260504235505 | 8 | 117 | 11.3 | 17.7 | 0.00 | 0.00 | 0.00 | 62 | 1012.8 |
| 20260504235003 | 8 | 104 | 11.3 | 17.7 | 0.00 | 0.00 | 0.00 | 61 | 1012.8 |
| 20260504234514 | 8 | 124 | 9.7 | 19.3 | 0.00 | 0.00 | 0.00 | 62 | 1012.8 |
| 20260504234003 | 9 | 123 | 12.9 | 19.3 | 0.00 | 0.00 | 0.00 | 60 | 1012.7 |
| 20260504233503 | 10 | 128 | 8.0 | 20.9 | 0.00 | 0.00 | 0.00 | 59 | 1012.7 |
| 20260504233016 | 10 | 150 | 12.9 | 24.1 | 0.00 | 0.00 | 0.00 | 61 | 1012.5 |
| 20260504232504 | 10 | 174 | 9.7 | 24.1 | 0.00 | 0.00 | 0.00 | 62 | 1012.6 |
| 20260504232006 | 9 | 126 | 12.9 | 20.9 | 0.00 | 0.00 | 0.00 | 61 | 1012.7 |
| 20260504231515 | 8 | 103 | 12.9 | 20.9 | 0.00 | 0.00 | 0.00 | 66 | 1012.7 |
| 20260504231008 | 8 | 137 | 4.8 | 12.9 | 0.00 | 0.00 | 0.00 | 68 | 1012.7 |